TimeCDT,TemperatureF,Dew PointF,Humidity,Sea Level PressureIn,VisibilityMPH,Wind Direction,Wind SpeedMPH,Gust SpeedMPH,PrecipitationIn,Events,Conditions,WindDirDegrees,DateUTC
12:53 AM,55.0,48.9,80,30.05,10.0,South,8.1,-,N/A,,Clear,170,2013-04-06 05:53:00
1:53 AM,55.0,48.0,77,30.04,10.0,South,8.1,-,N/A,,Clear,170,2013-04-06 06:53:00
2:53 AM,55.0,48.0,77,30.02,10.0,South,10.4,-,N/A,,Clear,170,2013-04-06 07:53:00
3:53 AM,54.0,48.0,80,30.01,10.0,South,10.4,-,N/A,,Clear,180,2013-04-06 08:53:00
4:53 AM,54.0,48.0,80,30.00,10.0,South,9.2,-,N/A,,Clear,190,2013-04-06 09:53:00
5:53 AM,53.1,48.0,83,30.01,10.0,South,8.1,-,N/A,,Clear,190,2013-04-06 10:53:00
6:53 AM,53.1,48.0,83,30.01,10.0,South,6.9,-,N/A,,Clear,190,2013-04-06 11:53:00
7:53 AM,53.1,46.9,80,30.03,10.0,South,8.1,-,N/A,,Clear,180,2013-04-06 12:53:00
8:53 AM,57.9,48.0,70,30.04,10.0,South,12.7,19.6,N/A,,Clear,190,2013-04-06 13:53:00
9:53 AM,63.0,48.9,60,30.02,10.0,South,16.1,25.3,N/A,,Clear,180,2013-04-06 14:53:00
10:53 AM,66.9,48.0,51,30.00,10.0,South,18.4,32.2,N/A,,Clear,180,2013-04-06 15:53:00
11:53 AM,69.1,50.0,51,30.01,10.0,South,17.3,26.5,N/A,,Clear,190,2013-04-06 16:53:00
12:53 PM,71.1,51.1,49,29.99,10.0,South,18.4,-,N/A,,Clear,190,2013-04-06 17:53:00
1:53 PM,72.0,52.0,49,29.97,10.0,SSW,16.1,27.6,N/A,,Clear,200,2013-04-06 18:53:00
2:53 PM,73.9,54.0,50,29.92,10.0,South,13.8,25.3,N/A,,Clear,180,2013-04-06 19:53:00
3:53 PM,73.0,55.0,53,29.91,10.0,South,15.0,-,N/A,,Overcast,190,2013-04-06 20:53:00
4:53 PM,75.0,55.9,51,29.89,10.0,South,20.7,27.6,N/A,,Overcast,180,2013-04-06 21:53:00
5:53 PM,73.0,55.9,55,29.89,10.0,South,15.0,24.2,N/A,,Mostly Cloudy,170,2013-04-06 22:53:00
6:53 PM,71.1,57.0,61,29.88,10.0,SSE,17.3,21.9,N/A,,Partly Cloudy,160,2013-04-06 23:53:00
7:53 PM,68.0,57.0,68,29.88,10.0,SSE,9.2,-,N/A,,Scattered Clouds,160,2013-04-07 00:53:00
8:53 PM,66.0,55.9,70,29.89,10.0,SSE,6.9,-,N/A,,Clear,160,2013-04-07 01:53:00
9:53 PM,64.9,55.9,73,29.91,10.0,SE,6.9,-,N/A,,Clear,140,2013-04-07 02:53:00
10:53 PM,63.0,55.9,78,29.92,10.0,SSE,9.2,-,N/A,,Clear,160,2013-04-07 03:53:00
11:53 PM,63.0,55.9,78,29.91,10.0,SSE,11.5,-,N/A,,Clear,160,2013-04-07 04:53:00